Weather Service Report


493 
ASUS46 KSEW 282010
RWRWA 

WASHINGTON REGIONAL WEATHER ROUNDUP
NATIONAL WEATHER SERVICE SEATTLE WA
100 PM PDT TUE APR 28 2015

NOTE:"FAIR" INDICATES FEW OR NO CLOUDS BELOW 12,000 FEET WITH NO 
SIGNIFICANT WEATHER AND/OR OBSTRUCTIONS TO VISIBILITY.

WAZ505-507>509-282100-
SEATTLE, TACOMA, EVERETT, AND VICINITY
  
CITY           SKY/WX    TMP DP  RH WIND       PRES   REMARKS
EVERETT        LGT RAIN  50  43  77 N6        30.13R                  
BOEING FIELD   LGT RAIN  56  48  74 N14       30.12R                  
RENTON         CLOUDY    54  47  77 NW13      30.12R                  
SEATAC AIRPORT CLOUDY    58  47  66 VRB3      30.11S                  
JBLM-MCCHORD   CLOUDY    59  46  61 W14       30.11S                  
PUYALLUP       CLOUDY    57  48  72 CALM      30.12S                  
BREMERTON      CLOUDY    59  45  58 NE12      30.13R                  
JBLM-FT LEWIS  CLOUDY    59  46  60 W9        30.11R                  
TACOMA NARROWS CLOUDY    59  43  55 SW8       30.11S                  
$$
 
WAZ001-503-506-510-514-515-282100-
NORTH INTERIOR
  
CITY           SKY/WX    TMP DP  RH WIND       PRES   REMARKS
BELLINGHAM     CLOUDY    55  44  66 SE5       30.11S                  
FRIDAY HARBOR  LGT RAIN  51  42  71 W6        30.14R                  
EASTSOUND      LGT RAIN  52  45  76 MISG      30.11R                  
PORT ANGELES   CLOUDY    54  42  64 NW13      30.11R                  
NAS WHIDBEY    CLOUDY    54  43  66 W14       30.14R                  
ARLINGTON      CLOUDY    55  43  62 NW10      30.14S                  
BURLINGTON     CLOUDY    54  48  82 NE6       30.12S                  
$$
 
WAZ020-022-039-040-504-511-512-282100-
SOUTHWEST INTERIOR
  
CITY           SKY/WX    TMP DP  RH WIND       PRES   REMARKS
SHELTON        CLOUDY    56  41  57 W14G24    30.09S                  
OLYMPIA        CLOUDY    58  42  55 SW9       30.13R                  
CHEHALIS       CLOUDY    57  46  67 VRB5G13   30.14S                  
KELSO          CLOUDY    57  45  62 W14G20    30.18R                  
VANCOUVER      CLOUDY    58  49  72 N9G22     30.10R                  
SCAPPOOSE, OR  CLOUDY    55  50  83 VRB6      30.12R                  
PORTLAND, OR   PTSUNNY   60  53  77 NW12G18   30.10R                  
$$
 
WAZ021-516-517-282100-
WASHINGTON COAST
  
CITY           SKY/WX    TMP DP  RH WIND       PRES   REMARKS
FORKS          MOSUNNY   55  48  77 SW8       30.15S                  
HOQUIAM        CLOUDY    55  46  71 W10       30.15S                  
ASTORIA, OR    CLOUDY    56  46  69 W8        30.17S                  
$$
 
WAZ019-023-024-040-518-519-282100-
CASCADE MOUNTAINS AND COLUMBIA GORGE
  
CITY           SKY/WX    TMP DP  RH WIND       PRES   REMARKS
TROUTDALE, OR  CLOUDY    66  49  54 CALM      30.07F                  
THE DALLES, OR SUNNY     72  47  40 NW24G32   29.98F                  
$$

WAZ026-027-041>044-520-521-282100-
EAST SLOPES
  
CITY           SKY/WX    TMP DP  RH WIND       PRES   REMARKS
OMAK           SUNNY     74  39  28 SW13      29.93F                  
WENATCHEE      SUNNY     74  34  23 E7        29.93F                  
ELLENSBURG     SUNNY     75  36  24 VRB5      29.95F                  
YAKIMA         SUNNY     78  38  23 S6        29.93F                  
$$

WAZ028-034-035-282100-
COLUMBIA BASIN
  
CITY           SKY/WX    TMP DP  RH WIND       PRES   REMARKS
EPHRATA        SUNNY     74  35  24 S8        29.94F                  
MOSES LAKE     SUNNY     74  35  24 SW6       29.95F                  
PASCO          SUNNY     75  46  35 N5        29.93F                  
HERMISTON, OR  SUNNY     75  37  25 W6G17     29.93F                  
$$

WAZ036>038-282100-
NORTHEAST WASHINGTON
  
CITY           SKY/WX    TMP DP  RH WIND       PRES   REMARKS
SPOKANE GEIGER MOSUNNY   74  37  26 VRB3      29.98F                  
SPOKANE FELTS  SUNNY     76  40  27 VRB6      29.98F                  
FAIRCHILD AFB  SUNNY     74  37  26 SW10      29.98F                  
COEURDALENE,ID SUNNY     72  36  26 S10       30.00F                  
DEER PARK      SUNNY     71  39  31 SW6       29.99F                  
$$

WAZ029>033-282100-
SOUTHEAST WASHINGTON
  
CITY           SKY/WX    TMP DP  RH WIND       PRES   REMARKS
PULLMAN        SUNNY     74  35  24 S6        30.01F                  
LEWISTON, ID   SUNNY     78  41  26 E9        29.94F                  
WALLA WALLA    SUNNY     77  44  30 VRB6      29.92F                  
PENDLETON, OR  SUNNY     75  43  31 NW16      29.93F                  
$$

Return to Home page


Western Regional Climate Center, wrcc@dri.edu